Regional Weather Roundup
Issued by NWS Charleston, SC

Current Version | Previous Version | Graphics & Text | Print | Product List | Glossary On
Versions: 1 2 3 4 5 6 7 8 9 10 11 12 13 14 15 16 17 18 19 20 21 22 23 24 25 26 27 28 29 30 31 32 33 34 35 36 37 38 39 40 41 42 43 44 45 46 47 48 49 50
709
ASUS42 KCHS 280828
RWRCHS

REGIONAL WEATHER ROUNDUP
NATIONAL WEATHER SERVICE CHARLESTON SC
400 AM EDT WED SEP 28 2016

NOTE: "FAIR" INDICATES FEW OR NO CLOUDS BELOW 12,000 FEET WITH NO
SIGNIFICANT WEATHER AND/OR OBSTRUCTIONS TO VISIBILITY.

NOT ALL STATIONS ARE QUALITY CONTROLLED. USE DATA WITH CAUTION...
ESPECIALLY DEWPOINT OBSERVATIONS.

SCZ027-030-031-034>040-042>050-280900-
...SOUTHEAST SOUTH CAROLINA...

CITY           SKY/WX    TMP DP  RH WIND       PRES   REMARKS
N CHARLESTON   CLEAR     72  69  90 CALM      29.92S
WATERFRONT PRK   N/A     75  73  93 CALM      29.90F
MOUNT PLEASANT FAIR      70  70 100 CALM      29.92S
JOHNS ISLAND   FAIR      72  70  94 CALM      29.92S
PINOPOLIS        N/A     73  72  94 VRB3      29.84F
MONCKS CORNER  FAIR      66  66 100 CALM      29.92F
SUMMERVILLE    FAIR      70  70 100 CALM      29.93S
BEAUFORT MCAS  CLEAR     73  71  93 SW3       29.92S
BEAUFORT ARPT  FAIR      72  72 100 CALM      29.91S
HILTON HEAD IS CLEAR     72  72 100 CALM      29.93R
WALTERBORO     MOSUNNY   70  70 100 CALM      29.93S
ALLENDALE      PTSUNNY   72  70  94 CALM      29.91S

...SOUTHERN MIDLANDS AND PEE DEE...

CITY           SKY/WX    TMP DP  RH WIND       PRES   REMARKS
GEORGETOWN     FAIR      68  66  94 CALM      29.93S
KINGSTREE      FAIR      66  64  94 CALM      29.92S
ORANGEBURG     CLEAR     71  70  96 CALM      29.93S FOG
BARNWELL       NOT AVBL
AIKEN          PTSUNNY   70  63  78 CALM      29.96F
MANNING        FAIR      70  70 100 S3        29.92F
COLUMBIA       MOCLDY    72  68  87 CALM      29.91S
SUMTER         PTCLDY    71  69  93 S3        29.89F
FLORENCE       CLEAR     72  69  90 CALM      29.92S
MYRTLE BEACH   CLEAR     72  63  73 CALM      29.94R
N MYRTLE BEACH CLEAR     69  68  96 CALM      29.91F

$$

GAZ063-065-086>088-099>101-113>116-118-119-134>141-150-280900-
...SOUTHEAST GEORGIA...

CITY           SKY/WX    TMP DP  RH WIND       PRES   REMARKS
SAVANNAH ARPT  CLEAR     72  70  93 S5        29.92F
HUNTER AAF     CLEAR     71  71 100 SW3       29.90S
FORT STEWART   CLEAR     70  68  92 CALM      29.90F
STATESBORO     PTCLDY    72  71  97 CALM      29.92S
SYLVANIA       NOT AVBL
CLAXTON        FAIR      70  70 100 CALM      29.92S

...CSRA...CENTRAL AND FAR SOUTHEAST GEORGIA...

CITY           SKY/WX    TMP DP  RH WIND       PRES   REMARKS
THOMSON        CLEAR     71  70  97 CALM      29.95S
AUGUSTA-BUSH   PTCLDY    68  67  96 CALM      29.91S
AUGUSTA-DANIEL CLOUDY    73  64  73 NE6       29.92F
SWAINSBORO     FAIR      70  68  94 SE3       29.92F
VIDALIA        CLEAR     70  70 100 S5        29.92S
EASTMAN        FAIR      72  71  98 CALM      29.94S
HAZLEHURST     FAIR      72  72 100 CALM      29.91S
ALMA           CLEAR     68  68 100 CALM      29.92F FOG
WAYCROSS       CLEAR     72  72 100 CALM      29.92F
JESUP          FOG       68  68 100 CALM      29.93S VSB 1/2
BAXLEY         FAIR      70  70 100 CALM      29.92S
BRUNSWICK      CLEAR     72  72 100 CALM      29.93S FOG
SAINT SIMONS   CLEAR     75  72  90 S3        29.92F

$$

SCZ027-028-034-036>038-045-046-048>050-GAZ119-141-280900-
...LAKE AND SUPPLEMENTAL COASTAL OBSERVATIONS...

STATION/POSITION TIME  TEMP    WIND        PRES    WAVE   SWELL
                       AIR SEA DIR/SP/G            HT/PER HT/PER/DIR
                 (UTC) (F)     (DEG/KT/KT) (MB)    (FT/S) (FT/S/D)
WINYAH BAY       0730   71     300/  1     1012.0F
LAKE MURRAY      0730   71      CALM  /  4 1012.5S
ACE BASIN NERRS  0745   72        CALM     1013.0S
FORT PULASKI     0800   76 81  230/  2/  4 1013.4
SAPELO ISLAND    0800   77     230/  5     1013.0

$$

ANZ835-935-AMZ111-154-330-350-352-354-370-450-454-472-280900-
...C-MAN AND BUOY OBSERVATIONS...

STATION/POSITION TIME  TEMP    WIND        PRES    WAVE   SWELL
                       AIR SEA DIR/SP/G            HT/PER HT/PER/DIR
                 (UTC) (F)     (DEG/KT/KT) (MB)    (FT/S) (FT/S/D)
BUOY 41004       0750   79 82   CALM  /  2 1012.4F   3/11   3/100/11
BUOY 41008       0750   81 82  200/  8/ 10 1013.1S   2/12   2/ 50/12
FOLLY BEACH CMAN 0800   76     280/  3/  3 1013.4R
CAPERS NEARSHORE 0708   80 81  220/  6/ 10 1012.9F
FRIPP NEARSHORE  0708   79 81  220/  6/ 10 1013.2F


STATION/POSITION TIME  TEMP    WIND        PRES    WAVE   SWELL
                       AIR SEA DIR/SP/G            HT/PER HT/PER/DIR
                 (UTC) (F)     (DEG/KT/KT) (MB)    (FT/S) (FT/S/D)
5E ST. MARYS GA  0731      82                N/A     3/12   2/ 90/12
FRYING PAN BUOY  0810   79 82  270/  4/  6 1012.6
BUOY 41025       0750   77 83  350/ 10/ 12 1012.1R   5/ 7   5/120/ 7
CAPE LOOKOUT NC  0800   74     350/  4/  5 1012.9F
BUOY 41002       0750   82 83  230/ 10/ 12 1012.9S   4/11   3/ 70/11
BUOY 41010       NOT AVBL
ST AUGUSTINE FL  0800   74 84  250/  7/  8 1014.4F


$$




USA.gov is the U.S. government's official web portal to all federal, state and local government web resources and services.